Weather History for Haleyville, AL

Change the Weather History Date:

Thursday, February 20, 2014

  Actual Average (KJFX) Record (KJFX)
Temperature  
Mean Temperature 61 °F -  
Max Temperature 72 °F 58 °F 78 °F (1986)
Min Temperature 47 °F 32 °F 14 °F (1978)
Degree Days  
Heating Degree Days 4    
Growing Degree Days 11 (Base 50)    
Moisture  
Dew Point 59 °F    
Average Humidity 89    
Maximum Humidity 100    
Minimum Humidity 64    
Precipitation  
Precipitation 2.28 in - - ()
Sea Level Pressure  
Sea Level Pressure 29.90 in    
Wind  
Wind Speed 13 mph (SSW)    
Max Wind Speed 23 mph    
Max Gust Speed 32 mph    
Visibility 6 miles    
Events Fog , Rain , Thunderstorm    
Averages and records for this station are not official NWS values.
T = Trace of Precipitation, MM = Missing Value Source: NWS Daily Summary

Daily Weather History Graph

Daily Weather History Graph

Search for Another Location

Airport:

Trip Planner

Search our weather history database for the weather conditions in past years. The results will help you decide how hot, cold, wet, or windy it might be!

Date:

Astronomy

Feb. 20, 2014 Rise Set
Actual Time 6:29 AM CST 5:38 PM CST
Civil Twilight 6:04 AM CST 6:04 PM CST
Nautical Twilight 5:35 AM CST 6:33 PM CST
Astronomical Twilight 5:06 AM CST 7:02 PM CST
Moon 11:15 PM CST (2/20) 9:28 AM CST (2/20)
Length of Visible Light 11h 59m
Length of Day
11h 08m
Waning Gibbous, 70% of the Moon is Illuminated
Feb 20
Waning Gibbous
Feb 22
Last Quarter
Mar 1
New
Mar 8
First Quarter
Mar 16
Full

Hourly Weather History & Observations

Time (CST) Temp. Dew Point Humidity Pressure Visibility Wind Dir Wind Speed Gust Speed Precip Events Conditions
12:56 AM 59.0 °F 57.9 °F 96% 30.01 in 9.0 mi SSE 9.2 mph - N/A   Scattered Clouds
1:21 AM 59.0 °F 57.2 °F 94% 29.97 in 8.0 mi SSE 9.2 mph - N/A   Mostly Cloudy
1:43 AM 59.0 °F 59.0 °F 100% 29.97 in 8.0 mi South 9.2 mph - N/A   Overcast
1:56 AM 59.9 °F 59.0 °F 97% 30.00 in 8.0 mi SSE 11.5 mph - N/A   Overcast
2:29 AM 60.8 °F 60.8 °F 100% 29.96 in 7.0 mi South 15.0 mph - N/A   Overcast
2:56 AM 61.0 °F 59.9 °F 96% 30.00 in 8.0 mi SSW 18.4 mph 24.2 mph N/A   Overcast
3:14 AM 60.8 °F 60.8 °F 100% 29.95 in 9.0 mi SSW 15.0 mph 24.2 mph N/A   Overcast
3:35 AM 62.6 °F 60.8 °F 94% 29.94 in 10.0 mi South 16.1 mph 23.0 mph N/A   Overcast
3:56 AM 61.9 °F 59.9 °F 93% 29.97 in 10.0 mi South 12.7 mph 23.0 mph N/A   Overcast
4:56 AM 61.9 °F 59.9 °F 93% 29.99 in 10.0 mi South 17.3 mph 24.2 mph N/A   Overcast
5:56 AM 61.9 °F 59.0 °F 90% 29.99 in 10.0 mi South 15.0 mph 25.3 mph N/A   Overcast
6:56 AM 61.9 °F 59.0 °F 90% 30.00 in 10.0 mi South 16.1 mph 23.0 mph N/A   Overcast
7:56 AM 63.0 °F 59.0 °F 87% 30.02 in 10.0 mi South 16.1 mph - N/A   Overcast
8:56 AM 64.9 °F 59.9 °F 84% 30.02 in 10.0 mi SSW 16.1 mph 24.2 mph N/A   Mostly Cloudy
9:10 AM 64.4 °F 60.8 °F 88% 29.99 in 10.0 mi SSW 17.3 mph 25.3 mph N/A   Mostly Cloudy
9:56 AM 65.8 °F 59.9 °F 81% 30.02 in 10.0 mi South 16.1 mph 25.3 mph N/A   Mostly Cloudy
10:56 AM 66.9 °F 59.9 °F 78% 30.01 in 10.0 mi South 12.7 mph 23.0 mph N/A   Overcast
11:56 AM 68.0 °F 61.0 °F 78% 29.99 in 10.0 mi South 16.1 mph 26.5 mph N/A   Overcast
12:56 PM 68.9 °F 61.0 °F 76% 29.96 in 10.0 mi South 13.8 mph - N/A   Mostly Cloudy
1:20 PM 71.6 °F 60.8 °F 69% 29.91 in 10.0 mi South 17.3 mph 29.9 mph N/A   Scattered Clouds
1:56 PM 70.9 °F 59.9 °F 68% 29.93 in 10.0 mi South 16.1 mph 26.5 mph N/A   Scattered Clouds
2:56 PM 72.9 °F 59.9 °F 64% 29.90 in 10.0 mi South 23.0 mph 29.9 mph N/A   Partly Cloudy
3:56 PM 72.0 °F 59.9 °F 66% 29.88 in 10.0 mi South 12.7 mph 25.3 mph N/A   Partly Cloudy
4:56 PM 72.0 °F 59.0 °F 64% 29.87 in 10.0 mi South 16.1 mph 24.2 mph N/A   Partly Cloudy
5:56 PM 70.0 °F 59.0 °F 68% 29.86 in 10.0 mi South 12.7 mph 17.3 mph N/A   Clear
6:56 PM 68.9 °F 59.9 °F 73% 29.85 in 10.0 mi SSE 13.8 mph 19.6 mph N/A   Mostly Cloudy
7:56 PM 68.0 °F 61.9 °F 81% 29.81 in 10.0 mi SSE 12.7 mph 20.7 mph N/A   Mostly Cloudy
8:39 PM 66.2 °F 62.6 °F 88% 29.77 in 6.0 mi South 18.4 mph 28.8 mph 0.00 in Rain , Thunderstorm Light Thunderstorms and Rain
8:56 PM 65.8 °F 63.0 °F 90% 29.87 in 3.0 mi WNW 11.5 mph 23.0 mph 0.02 in Rain , Thunderstorm Heavy Thunderstorms and Rain
8:59 PM 64.4 °F 60.8 °F 88% 29.82 in 1.8 mi WNW 13.8 mph 27.6 mph 0.06 in Rain , Thunderstorm Thunderstorms and Rain
9:03 PM 60.8 °F 57.2 °F 88% 29.81 in 1.0 mi West 17.3 mph 28.8 mph 0.13 in Rain , Thunderstorm Heavy Thunderstorms and Rain
9:08 PM 60.8 °F 57.2 °F 88% 29.79 in 0.5 mi SW 18.4 mph 28.8 mph 0.31 in Fog , Rain , Thunderstorm Heavy Thunderstorms and Rain
9:17 PM 60.8 °F 57.2 °F 88% 29.79 in 1.0 mi West 20.7 mph 32.2 mph 0.41 in Rain , Thunderstorm Heavy Thunderstorms and Rain
9:28 PM 59.0 °F 57.2 °F 94% 29.81 in 0.5 mi WSW 17.3 mph 27.6 mph 0.71 in Fog , Rain , Thunderstorm Heavy Thunderstorms and Rain
9:43 PM 59.0 °F 59.0 °F 100% 29.82 in 0.5 mi SW 13.8 mph 19.6 mph 1.22 in Fog , Rain , Thunderstorm Heavy Thunderstorms and Rain
9:46 PM 59.0 °F 59.0 °F 100% 29.81 in 0.8 mi WSW 10.4 mph 19.6 mph 1.29 in Rain , Thunderstorm Heavy Thunderstorms and Rain
9:56 PM 59.0 °F 59.0 °F 100% 29.86 in 1.0 mi SW 13.8 mph 20.7 mph 1.40 in Rain , Thunderstorm Heavy Thunderstorms and Rain
9:59 PM 59.0 °F 59.0 °F 100% 29.82 in 1.5 mi SW 11.5 mph 20.7 mph 0.01 in Rain , Thunderstorm Heavy Thunderstorms and Rain
10:25 PM 59.0 °F 59.0 °F 100% 29.83 in 2.5 mi SW 10.4 mph 19.6 mph 0.16 in Rain , Thunderstorm Heavy Thunderstorms and Rain
10:27 PM 59.0 °F 59.0 °F 100% 29.82 in 3.0 mi SW 10.4 mph 19.6 mph 0.17 in Rain , Thunderstorm Heavy Thunderstorms and Rain
10:29 PM 59.0 °F 59.0 °F 100% 29.80 in 3.0 mi SSW 11.5 mph 19.6 mph 0.18 in Rain , Thunderstorm Heavy Thunderstorms and Rain
10:37 PM 59.0 °F 59.0 °F 100% 29.82 in 2.5 mi WSW 10.4 mph - 0.22 in Rain , Thunderstorm Heavy Thunderstorms and Rain
10:46 PM 59.0 °F 59.0 °F 100% 29.85 in 2.0 mi SW 17.3 mph 23.0 mph 0.28 in Rain Heavy Rain
10:56 PM 59.0 °F 59.0 °F 100% 29.89 in 1.0 mi WSW 15.0 mph 25.3 mph 0.43 in Rain Heavy Rain
11:01 PM 59.0 °F 59.0 °F 100% 29.87 in 1.2 mi West 11.5 mph 23.0 mph 0.04 in Rain , Thunderstorm Heavy Thunderstorms and Rain
11:11 PM 57.2 °F 55.4 °F 94% 29.89 in 1.2 mi WSW 15.0 mph 20.7 mph 0.17 in Rain , Thunderstorm Heavy Thunderstorms and Rain
11:19 PM 55.4 °F 55.4 °F 100% 29.89 in 1.0 mi WSW 9.2 mph 20.7 mph 0.30 in Rain Heavy Rain
11:26 PM 53.6 °F 51.8 °F 94% 29.89 in 1.5 mi NW 18.4 mph 25.3 mph 0.34 in Rain Heavy Rain
11:33 PM 51.8 °F 48.2 °F 88% 29.92 in 2.0 mi NW 13.8 mph 26.5 mph 0.36 in Rain Heavy Rain
11:41 PM 50.0 °F 48.2 °F 94% 29.92 in 2.5 mi Calm Calm - 0.39 in Rain Heavy Rain
11:56 PM 47.8 °F 45.9 °F 93% 29.97 in 3.0 mi NW 10.4 mph - 0.43 in Rain Heavy Rain